Das Wetter in  D-61279 Heinzenberg / Taunus





Wetter Minimum- & Maximum-Werte im Januar 2013

Standort: Heinzenberg / Taunus - Höhe 297 m         8 24' 1" Ost 50 21' 51" Nord
(   3-stündige Aktualisierung    letzte Aktualisierung um 19:04 am 31.01.2013  )


Messgrösse

Minimum

Maximum

Durchschnitt

Temperatur West /
Luftfeuchte West
Anklicken für Monats-Diagramm

-11,3 C

06:17
24.01.2013

60 %

15:45
12.01.2013

12,6 C

13:37
30.01.2013

92 %

20:33
03.01.2013

Temp

0,3 C

Feuchte

84 %

Temperatur Ost /
Luftfeuchte Ost
Anklicken für Monats-Diagramm

-10,8 C

06:07
24.01.2013

--

--
--

12,7 C

13:32
30.01.2013

--

--
--

0,4 C

--

Luftdruck Anklicken für Monats-Diagramm

994,7 hPa

17:53
20.01.2013

1035,7 hPa

00:44
04.01.2013

1015,7 hPa

Taupunkt

-13,3 C

06:17
24.01.2013

9,3 C

15:12
30.01.2013

-2,0 C

Windchill
( gefühlte Temperatur )

-19,5 C

09:33
15.01.2013

9,1 C

05:07
30.01.2013

-2,7 C

Windgeschwindigkeit /
Windrichtung
Anklicken für Monats-Diagramm

---

61,7 km/h / W-SW

16:32
30.01.2013

8,8 km/h
W

Helligkeit /
Sonnenschein
Anklicken für Monats-Diagramm
Anklicken für Monats-Diagramm

Sonnenschein:

19:40 Stunden

Max: 7:00 Std am
13.01.2013

52,0 klux

14:00
28.01.2013

6,3 klux

Solarstrahlung Anklicken für Monats-Diagramm

---

356 W/m

14:00
28.01.2013

48 W/m

Regenmenge
    Januar 2013
Anklicken für Monats-Diagramm

Insgesamt 30,9 l/m

in 90:00 Stunden
an 23 Tagen

9,9 l/m

06:56
29.01.2013

Gesamtmenge

30,9 l/m

Regen-Tage
    Januar 2013
Anklicken für Monats-Diagramm

>   0 mm/Tag

>   2 mm/Tag

>   5 mm/Tag

> 10 mm/Tag

> 20 mm/Tag

23 Tage     
5 Tage     
2 Tage     
0 Tage     
0 Tage     

Eisige Tage Januar 2013 / 2012

Tmin ≤ -10C     

  1 Tag

/

0 Tage

Eistage Januar 2013 / 2012

Tmax <     0C     

14 Tage

/

2 Tage

Frosttage Januar 2013 / 2012

Tmin ≤     0C     

17 Tage

/

13 Tage

Kalte Tage Januar 2013 / 2012

Tmax <   10C     

30 Tage

/

29 Tage

Warme Tage Januar 2013 / 2012

Tmax ≥   20C     

0 Tage

/

0 Tage

Sommertage Januar 2013 / 2012

Tmax ≥   25C     

0 Tage

/

0 Tage

Heisse Tage Januar 2013 / 2012

Tmax ≥   30C     

0 Tage

/

0 Tage


Monatsdiagramm Januar 2013

Die Kurven zeigen den Durchschnittswert des jeweiligen Tages an


Wetter-Monatsübersicht Januar 2013
Datum
  Temperatur
   Luftdruck
   Wind
  Regen
   Luftfeuchte
   Helligkeit

Sonnen-
schein


Temp.

Min.
Temp.

Max.
Temp.


Luftdruck

Min.
Luftdruck

Max.
Luftdruck

-Geschw.
Haupt-Richtg.

Max.
Wind

Menge /
Dauer


Feuchte

Min.
Feuchte

Max.
Feuchte


Helligkeit

Max.
Helligkeit

1.
Januar
5,2 C1,9 C
23:02
6,7 C
17:01
1008,0 hPa1004,9 hPa
06:11
1014,8 hPa
23:02
18,1 km/h
W-SW
38,2 km/h
17:21  
2,1 l/m
6:50 Stunden
81 %72 %
00:01
89 %
23:32
3,92 klux9,30 klux
11:56
--- 
2.
Januar
3,5 C2,0 C
02:42
5,3 C
14:07
1023,8 hPa1014,8 hPa
00:02
1030,1 hPa
22:07
15,7 km/h
W-SW
28,4 km/h
10:12  
---
40 Minuten
82 %77 %
17:32
88 %
00:02
7,0 klux31,5 klux
12:12
25 Min 
3.
Januar
6,2 C3,6 C
00:03
8,2 C
23:14
1031,7 hPa1028,9 hPa
05:33
1035,7 hPa
23:34
18,5 km/h
W
32,8 km/h
18:43  
0,5 l/m
2:20 Stunden
88 %80 %
00:03
92 %
20:33
2,6 klux7,6 klux
13:48
--- 
4.
Januar
8,6 C7,4 C
23:59
9,6 C
12:24
1034,5 hPa1033,5 hPa
14:09
1035,7 hPa
00:44
17,8 km/h
W
35,4 km/h
15:54  
0,2 l/m
50 Minuten
90 %89 %
12:29
92 %
22:19
2,10 klux5,83 klux
11:04
--- 
5.
Januar
6,5 C6,1 C
20:49
7,4 C
00:04
1032,9 hPa1031,8 hPa
02:39
1033,9 hPa
18:49
16,5 km/h
W-NW
27,9 km/h
13:59  
---
15 Minuten
88 %86 %
09:09
92 %
00:04
1,85 klux5,91 klux
12:34
--- 
6.
Januar
6,4 C5,4 C
04:45
7,2 C
17:35
1030,2 hPa1028,6 hPa
17:35
1032,9 hPa
02:35
14,6 km/h
W-NW
30,7 km/h
10:00  
---
89 %84 %
22:56
91 %
07:25
1,86 klux5,80 klux
13:40
--- 
7.
Januar
6,5 C4,2 C
23:57
7,7 C
13:06
1028,9 hPa1027,6 hPa
16:31
1029,8 hPa
06:41
4,4 km/h
W-NW
17,3 km/h
00:36  
---
85 %82 %
13:36
88 %
08:56
5,05 klux21,20 klux
11:11
5 Min 
8.
Januar
4,5 C3,5 C
03:02
5,4 C
22:43
1026,3 hPa1024,9 hPa
05:52
1028,0 hPa
00:02
7,7 km/h
W
21,7 km/h
11:07  
---
88 %85 %
19:32
90 %
03:37
3,2 klux17,6 klux
12:12
--- 
9.
Januar
3,9 C2,7 C
22:34
5,3 C
00:03
1021,6 hPa1017,8 hPa
20:08
1025,8 hPa
01:08
6,2 km/h
W
18,9 km/h
21:08  
2,0 l/m
3:20 Stunden
85 %82 %
13:58
91 %
23:49
3,5 klux8,8 klux
11:48
--- 
10.
Januar
3,2 C2,1 C
22:50
5,2 C
14:59
1013,7 hPa1010,5 hPa
20:44
1017,8 hPa
00:04
11,2 km/h
W
22,4 km/h
15:19  
---
20 Minuten
87 %79 %
15:04
92 %
01:09
5,94 klux29,00 klux
14:34
1:05 Std 
11.
Januar
-1,2 C-4,6 C
23:50
2,3 C
00:25
1016,8 hPa1010,6 hPa
00:00
1019,8 hPa
23:50
4,0 km/h
N
19,3 km/h
04:35  
---
78 %67 %
15:00
85 %
01:35
14,5 klux44,8 klux
12:35
3:35 Std 
12.
Januar
-4,8 C-7,7 C
08:40
0,5 C
15:35
1019,4 hPa1018,1 hPa
15:35
1021,2 hPa
09:55
1,8 km/h
SO
16,0 km/h
13:15  
---
77 %60 %
15:45
85 %
09:50
19,6 klux38,1 klux
12:10
6:30 Std 
13.
Januar
-5,1 C-7,4 C
02:51
-0,4 C
16:11
1018,0 hPa1016,1 hPa
16:11
1019,2 hPa
02:51
2,7 km/h
SO
20,8 km/h
12:26  
---
76 %65 %
16:21
83 %
04:36
19,5 klux35,1 klux
13:26
7:00 Std 
14.
Januar
-6,3 C-9,5 C
23:53
-3,0 C
14:02
1015,1 hPa1013,2 hPa
22:07
1017,0 hPa
01:02
2,8 km/h
SO
15,0 km/h
16:02  
---
81 %76 %
15:57
85 %
10:07
6,1 klux24,8 klux
12:12
10 Min 
15.
Januar
-4,1 C-9,6 C
01:43
-1,4 C
15:58
1007,5 hPa1004,9 hPa
14:23
1013,3 hPa
00:03
7,1 km/h
O-SO
29,0 km/h
09:33  
0,2 l/m
2:36 Stunden
82 %79 %
12:23
86 %
22:34
5,7 klux12,6 klux
13:48
--- 
16.
Januar
-3,2 C-4,1 C
10:14
-2,0 C
00:04
1009,2 hPa1006,0 hPa
00:04
1012,4 hPa
23:35
4,0 km/h
NW
13,5 km/h
06:29  
0,3 l/m
4:50 Stunden
86 %84 %
15:29
89 %
04:04
3,3 klux10,4 klux
13:34
--- 
17.
Januar
-4,0 C-5,7 C
07:30
-2,6 C
15:35
1015,8 hPa1012,5 hPa
00:00
1017,5 hPa
18:00
0,8 km/h
NW
7,2 km/h
14:40  
0,8 l/m
10:55 Stunden
86 %85 %
01:45
88 %
17:55
5,8 klux16,1 klux
11:55
--- 
18.
Januar
-3,5 C-6,0 C
05:16
-2,0 C
13:01
1010,8 hPa1004,1 hPa
23:37
1016,5 hPa
00:01
1,2 km/h
O
11,4 km/h
23:52  
---
1:20 Stunden
83 %80 %
14:46
87 %
00:01
5,6 klux11,4 klux
12:21
--- 
19.
Januar
-5,2 C-7,9 C
23:18
-3,7 C
15:02
1000,1 hPa997,9 hPa
15:02
1004,2 hPa
00:37
3,9 km/h
O
16,0 km/h
03:37  
---
5 Minuten
80 %77 %
16:37
82 %
00:07
5,8 klux12,5 klux
12:22
--- 
20.
Januar
-5,0 C-8,0 C
02:13
-2,1 C
20:33
996,9 hPa994,7 hPa
17:53
998,5 hPa
02:13
2,2 km/h
O
20,7 km/h
17:58  
4,3 l/m
12:44 Stunden
84 %81 %
00:03
87 %
21:03
6,7 klux26,3 klux
12:28
10 Min 
21.
Januar
-3,5 C-4,3 C
08:49
-1,8 C
13:29
999,9 hPa997,9 hPa
00:04
1002,1 hPa
22:55
0,0 km/h
NW
3,6 km/h
19:09  
5,0 l/m
7:30 Stunden
88 %87 %
00:04
89 %
03:59
6,9 klux23,4 klux
13:19
--- 
22.
Januar
-4,0 C-4,7 C
08:45
-3,1 C
13:30
1005,4 hPa1002,1 hPa
00:00
1008,3 hPa
21:30
0,0 km/h
NW
2,8 km/h
12:40  
0,3 l/m
9:06 Stunden
88 %87 %
12:05
89 %
00:00
4,5 klux13,2 klux
12:00
--- 
23.
Januar
-3,9 C-5,9 C
23:57
-2,9 C
16:21
1009,2 hPa1008,3 hPa
00:06
1011,7 hPa
23:57
0,0 km/h
N
0,5 km/h
15:16  
---
50 Minuten
88 %86 %
23:22
89 %
00:01
3,6 klux7,3 klux
12:46
--- 
24.
Januar
-6,2 C-11,3 C
06:17
-3,2 C
15:32
1014,5 hPa1010,7 hPa
00:07
1019,7 hPa
23:57
0,4 km/h
SO
7,1 km/h
04:32  
---
40 Minuten
86 %85 %
04:22
87 %
07:57
6,00 klux13,10 klux
12:37
--- 
25.
Januar
-4,2 C-4,8 C
23:23
-3,5 C
11:37
1019,8 hPa1015,7 hPa
23:58
1021,8 hPa
10:47
1,6 km/h
SO
15,2 km/h
22:33  
---
85 %83 %
12:37
86 %
00:02
3,9 klux8,5 klux
11:17
--- 
26.
Januar
-4,7 C-5,9 C
07:23
-2,8 C
23:54
1015,0 hPa1013,5 hPa
14:13
1015,8 hPa
10:13
6,7 km/h
O-SO
20,0 km/h
09:28  
---
2:05 Stunden
84 %80 %
15:13
86 %
23:39
8,99 klux21,40 klux
14:13
--- 
27.
Januar
0,0 C-2,8 C
00:04
1,7 C
12:24
1008,9 hPa1004,5 hPa
15:59
1015,4 hPa
00:04
10,5 km/h
W-SW
22,8 km/h
21:04  
3,2 l/m
5:25 Stunden
86 %80 %
13:04
90 %
19:39
6,3 klux15,4 klux
11:44
--- 
28.
Januar
2,4 C1,2 C
00:25
4,4 C
14:05
1014,3 hPa1008,6 hPa
01:10
1017,8 hPa
18:00
9,3 km/h
W-SW
31,7 km/h
23:56  
---
15 Minuten
86 %82 %
14:10
89 %
01:40
10,5 klux52,0 klux
14:00
40 Min 
29.
Januar
6,2 C2,7 C
00:01
8,7 C
22:47
1011,9 hPa1010,9 hPa
15:36
1014,7 hPa
00:01
23,5 km/h
W-SW
41,8 km/h
05:31  
9,9 l/m
11:49 Stunden
89 %82 %
05:36
92 %
12:21
4,9 klux10,2 klux
12:06
--- 
30.
Januar
9,4 C6,0 C
23:13
12,6 C
13:37
1010,4 hPa1006,2 hPa
14:42
1016,3 hPa
23:18
27,7 km/h
W-SW
61,7 km/h
16:32  
1,4 l/m
3:35 Stunden
84 %72 %
23:33
92 %
01:32
3,1 klux9,2 klux
13:17
--- 
31.
Januar
6,1 C5,2 C
15:23
7,3 C
14:23
1015,3 hPa1011,1 hPa
18:13
1018,5 hPa
08:58
32,7 km/h
W
51,0 km/h
19:38  
0,9 l/m
1:40 Stunden
74 %67 %
13:48
85 %
15:33
6,0 klux20,3 klux
10:18
--- 



Januar
2013

Temperatur

  

Luftdruck

  

Wind

  

Regen

  

Luftfeuchte

  

Helligkeit

Sonnen-
schein

Min

Max

Min

Max

Max

Max

Min

Max

Max

Max

0,3 C

-11,3 C

06:17 Uhr
24.01.2013

12,6 C

13:37 Uhr
30.01.2013

1015,7 hPa

994,7 hPa

17:53 Uhr
20.01.2013

1035,7 hPa

00:44 Uhr
04.01.2013

8,8 km/h

W

61,7 km/h

16:32 Uhr
30.01.2013

9,9 l/m

11:49 Stunden
29.01.2013

84 %

60 %

15:45 Uhr
12.01.2013

92 %

20:33 Uhr
03.01.2013

6,3 klux

52,00 klux

14:00 Uhr
28.01.2013

7:00 Std

am
13.01.2013

Gesamt

Gesamt

30,9 l/m

23 Tage
90:00 h

19:40 Std


Wetter-Diagramme Januar 2013     Heinzenberg / Taunus   
TemperaturLuftfeuchte
SolarstrahlungLuftdruck
HelligkeitSonnenschein
RegenmengeRegendauer
Wind-GeschwindigkeitWind-Richtung